User: anonymous   Login
Location: Unspecified
(0.0000°N, 0.0000°E)
Time: 15:14:37
(UTC+02:00)
Language:

Milstar 3 Cent rocket - Orbit

View from above orbital plane
View from above orbital plane
View from above satellite
View from above satellite

Ground track
Ground track

The orbit data is extracted from the following two-line orbital elements,

1 25725U 99023B   15111.06233519 0.00000000  00000-0  00000-0 0    05
2 25725  28.3251  46.3636 2384418 222.5104 137.4891  9.67210085    09
Epoch (UTC): 21 April 2015 01:29:45
Eccentricity: 0.2384418
inclination: 28.3251°
perigee height: 708 km
apogee height: 5145 km
right ascension of ascending node: 46.3636°
argument of perigee: 222.5104°
revolutions per day: 9.67210085
mean anomaly at epoch: 137.4891°
orbit number at epoch: 0

The dashed part of the orbit path shows where the satellite is in the earth's shadow,  

DLR